This is the latest recevied weather packets stored in our database for station/object W1SCW. If no packets are shown the sender has not sent any weather packets the latest 10 day(s).
| Time | Temp. | Humidity | Pressure | Rain* | Wind** | Luminosity | Snow |
|---|---|---|---|---|---|---|---|
| 1777752671 | 23.89° C | 47% | 1017.7 hPa | 0 mm | - | 766 W/m² | - |
| 1777752366 | 23.89° C | 49% | 1017.7 hPa | 0 mm | - | 780 W/m² | - |
| 1777752064 | 23.89° C | 48% | 1017.7 hPa | 0 mm | - | 625 W/m² | - |
| 1777751761 | 24.44° C | 50% | 1017.9 hPa | 0 mm | - | 803 W/m² | - |
| 1777751457 | 23.89° C | 49% | 1017.9 hPa | 0 mm | - | 812 W/m² | - |
| 1777751148 | 23.89° C | 48% | 1018 hPa | 0 mm | - | 809 W/m² | - |
| 1777750844 | 23.89° C | 50% | 1018.1 hPa | 0 mm | - | 847 W/m² | - |
| 1777750542 | 24.44° C | 50% | 1018.1 hPa | 0 mm | - | 844 W/m² | - |
| 1777750238 | 23.89° C | 51% | 1018.1 hPa | 0 mm | - | 831 W/m² | - |
| 1777749934 | 23.89° C | 48% | 1018.1 hPa | 0 mm | - | 831 W/m² | - |
| 1777749631 | 23.33° C | 49% | 1018.1 hPa | 0 mm | - | 838 W/m² | - |
| 1777749328 | 23.33° C | 48% | 1018.3 hPa | 0 mm | - | 803 W/m² | - |
| 1777749026 | 23.33° C | 50% | 1018.2 hPa | 0 mm | - | 790 W/m² | - |
| 1777748723 | 23.89° C | 52% | 1018.3 hPa | 0 mm | - | 765 W/m² | - |
| 1777748420 | 23.89° C | 52% | 1018.3 hPa | 0 mm | - | 761 W/m² | - |
| 1777748115 | 23.33° C | 47% | 1018.5 hPa | 0 mm | - | 756 W/m² | - |
| 1777747812 | 22.78° C | 48% | 1018.4 hPa | 0 mm | - | 813 W/m² | - |
| 1777747508 | 22.78° C | 51% | 1018.5 hPa | 0 mm | - | 789 W/m² | - |
| 1777747204 | 22.78° C | 51% | 1018.5 hPa | 0 mm | - | 562 W/m² | - |
| 1777746900 | 23.33° C | 49% | 1018.6 hPa | 0 mm | - | 722 W/m² | - |
| 1777746595 | 23.89° C | 50% | 1018.7 hPa | 0 mm | - | 727 W/m² | - |
| 1777746291 | 23.33° C | 49% | 1018.9 hPa | 0 mm | - | 725 W/m² | - |
| 1777745987 | 22.78° C | 48% | 1019 hPa | 0 mm | - | 740 W/m² | - |
| 1777745686 | 22.78° C | 51% | 1018.9 hPa | 0 mm | - | 728 W/m² | - |
| 1777745384 | 22.78° C | 51% | 1018.9 hPa | 0 mm | - | 717 W/m² | - |
* Rain latest hour (hover to see other rain measurements)
** Current wind speed in m/s (hover to see current wind gust speed)